[[{"header":{"parameterUnit":"m.s-1","parameterCategory":2,"la1":30.2991,"la2":30.254,"lo1":-89.0895,"lo2":-89.0444,"dy":0.0017,"dx":0.0017,"nx":28,"ny":28,"refTime":"2023-09-22T09:00:00:Z","depth":"0","parameterNumber":2,"parameterNumberName":"U-component_of_CURRENTS"},"data":[0,0,0,0,0,0,0,0,0,0,0,0,0,0,0,0,0,0,0,0,0,0,0,0,0,0,0,0,0,0,0,0,0,0,0,0,0,0,0,0,0,0,0,0,0,0,0,0,0,0,0,0,0,0,0,0,0,0,-0.1947,-0.1947,0,-0.195,-0.1949,-0.1949,-0.1906,-0.1905,-0.1904,-0.1903,-0.1865,-0.1865,-0.1865,0,0,0,0,0,0,0,0,0,0,0,0,0,-0.1893,-0.1894,-0.1947,-0.1947,-0.1948,-0.195,-0.1949,-0.1949,-0.1906,-0.1905,-0.1904,-0.1902,-0.1865,-0.1865,-0.1865,0,0,0,0,0,0,0,0,0,0,0,0,0,-0.1906,-0.1895,-0.1947,-0.1928,-0.1926,-0.195,-0.1949,-0.1949,-0.1906,-0.1905,-0.1903,-0.1902,-0.1866,-0.1865,-0.1865,-0.1894,0,0,-0.1865,-0.1865,0,0,0,0,0,0,0,0,-0.1906,-0.1908,-0.193,-0.1929,-0.1928,-0.1928,-0.1917,-0.1929,-0.1907,-0.1911,-0.1903,-0.1901,-0.1885,-0.1883,-0.1884,-0.1892,-0.189,-0.1865,-0.1865,-0.1865,-0.1865,0,0,0,0,0,0,0,-0.1905,-0.1908,-0.1946,-0.1931,-0.1929,-0.1915,-0.1915,-0.1919,-0.1904,-0.1911,-0.1908,-0.1913,-0.1883,-0.1885,-0.1883,-0.189,-0.1865,-0.1865,-0.1865,-0.1865,-0.1889,-0.189,0,0,0,0,0,0,-0.1911,-0.1907,-0.1946,-0.1946,-0.1915,-0.1918,-0.1918,-0.1927,-0.1905,-0.1901,-0.1914,-0.1911,-0.1886,-0.1883,-0.1882,-0.1894,-0.1865,-0.1865,-0.1864,-0.1889,-0.189,-0.189,0,0,0,0,0,0,-0.191,-0.1915,-0.1946,-0.1928,-0.1931,-0.192,-0.1932,-0.1928,-0.1924,-0.1908,-0.1902,-0.1912,-0.1884,-0.1882,-0.1881,-0.1893,-0.1864,-0.1864,-0.1888,-0.1889,-0.189,-0.1931,0,0,0,0,0,0,-0.1909,-0.1915,-0.1922,-0.1929,-0.1932,-0.1958,-0.1933,-0.1929,-0.193,-0.1926,-0.1905,-0.19,-0.1883,-0.1882,-0.1881,-0.1892,-0.1864,-0.1887,-0.1888,-0.189,-0.1929,-0.1933,-0.1937,0,0,0,0,0,-0.1907,-0.1922,-0.1922,-0.1927,-0.1943,-0.1959,-0.1959,-0.1944,-0.1932,-0.1934,-0.1919,-0.1901,-0.189,-0.1883,-0.1882,-0.1892,-0.1886,-0.1888,-0.189,-0.1927,-0.1932,-0.1937,0,0,0,0,0,0,-0.1903,-0.192,-0.192,-0.194,-0.1949,-0.1952,-0.1953,-0.195,-0.1943,-0.1934,-0.1914,-0.1909,-0.1911,-0.1901,-0.1893,-0.1904,-0.1884,-0.1886,-0.1913,-0.1918,-0.1922,-0.1924,-0.1864,0,0,0,0,0,-0.1909,-0.1919,-0.1937,-0.1949,-0.1956,-0.1957,-0.1961,-0.1956,-0.1953,-0.1947,-0.1935,-0.1924,-0.1921,-0.1918,-0.1912,-0.1924,-0.1903,-0.1929,-0.1933,-0.1937,-0.1938,-0.1929,-0.1933,-0.1896,-0.1896,-0.1896,0,0,-0.191,-0.192,-0.1926,-0.1949,-0.1952,-0.1966,-0.1955,-0.1963,-0.1971,-0.1946,-0.1947,-0.1939,-0.1928,-0.1934,-0.1935,-0.1925,-0.1934,-0.1939,-0.1943,-0.1942,-0.1931,-0.1935,-0.1938,-0.1897,-0.1897,-0.1897,0,0,-0.1913,-0.1929,-0.1936,-0.1951,-0.1964,-0.197,-0.1976,-0.1984,-0.1981,-0.1991,-0.1973,-0.1974,-0.1969,-0.1965,-0.1963,-0.1991,-0.1958,-0.1988,-0.2012,-0.2004,-0.2006,-0.2009,-0.1974,-0.1973,-0.199,-0.1991,-0.1991,0,-0.1912,-0.1927,-0.1941,-0.1956,-0.1967,-0.1975,-0.1988,-0.1997,-0.2002,-0.2006,-0.1992,-0.1991,-0.1984,-0.1995,-0.2005,-0.2001,-0.198,-0.1993,-0.2009,-0.2011,-0.2012,-0.1976,-0.1975,-0.1993,-0.1992,-0.1992,-0.1992,0,-0.192,-0.1936,-0.1944,-0.1964,-0.1982,-0.1994,-0.2016,-0.2028,-0.2028,-0.2032,-0.204,-0.2033,-0.2029,-0.2034,-0.2029,-0.2042,-0.2017,-0.2015,-0.1995,-0.2018,-0.1979,-0.1976,-0.1996,-0.1995,-0.1994,-0.1994,0,0,-0.1895,-0.194,-0.1939,-0.1953,-0.1987,-0.2,-0.2028,-0.2051,-0.206,-0.2067,-0.2073,-0.2084,-0.2076,-0.2074,-0.2068,-0.2068,-0.2063,-0.205,-0.2049,-0.2014,-0.2022,-0.1951,-0.1941,-0.2063,-0.2063,-0.2063,-0.1985,0,-0.189,-0.1918,-0.1944,-0.1969,-0.1985,-0.2016,-0.204,-0.2065,-0.2076,-0.2086,-0.2091,-0.2091,-0.2093,-0.2087,-0.2093,-0.2072,-0.206,-0.2083,-0.2006,-0.2004,-0.1936,-0.1937,-0.185,-0.1769,-0.1982,-0.1982,-0.1981,0,-0.1876,-0.1899,-0.1923,-0.1971,-0.1981,-0.1999,-0.2035,-0.206,-0.2089,-0.2097,-0.2108,-0.2105,-0.2112,-0.2104,-0.2081,-0.2094,-0.2062,-0.2043,-0.2039,-0.1957,-0.1928,-0.1782,-0.1755,-0.1733,-0.1977,-0.1977,-0.1978,0,-0.1833,-0.1881,-0.1897,-0.1913,-0.1971,-0.1986,-0.2014,-0.2053,-0.2071,-0.2097,-0.2101,-0.2111,-0.2101,-0.2084,-0.2052,-0.2064,-0.2008,-0.2016,-0.1917,-0.191,-0.1812,-0.1797,-0.1752,-0.199,-0.199,-0.199,-0.199,0,-0.1809,-0.1819,-0.1876,-0.1884,-0.1905,-0.1957,-0.1976,-0.2011,-0.2048,-0.2052,-0.2095,-0.2083,-0.2098,-0.207,-0.2044,-0.1963,-0.1997,-0.1913,-0.1888,-0.1822,-0.1809,-0.1766,-0.1785,-0.1987,-0.1988,-0.1988,-0.1989,0,-0.1748,-0.1788,-0.1809,-0.1866,-0.1882,-0.1893,-0.195,-0.1957,-0.2011,-0.2015,-0.2021,-0.2055,-0.2015,-0.2009,-0.1966,-0.1933,-0.183,-0.1834,-0.1743,-0.1709,-0.1596,-0.1621,-0.1546,-0.1506,-0.171,-0.1708,-0.1706,0,-0.1717,-0.1721,-0.1776,-0.1779,-0.1799,-0.183,-0.1839,-0.1917,-0.1928,-0.1977,-0.1963,-0.1955,-0.1911,-0.1834,-0.1777,-0.1701,-0.1722,-0.1586,-0.1601,-0.1568,-0.1578,-0.1604,-0.1579,-0.148,-0.1477,-0.1474,-0.1471,0,-0.1646,-0.1665,-0.168,-0.1692,-0.1702,-0.1729,-0.1757,-0.1767,-0.1837,-0.1846,-0.1834,-0.1807,-0.1743,-0.1631,-0.1557,-0.1509,-0.154,-0.1523,-0.1518,-0.1416,-0.1412,-0.1367,-0.1546,-0.1446,-0.1448,-0.145,-0.1451,-0.1453,-0.1574,-0.1567,-0.158,-0.1584,-0.1601,-0.1604,-0.158,-0.1616,-0.162,-0.1598,-0.1653,-0.1575,-0.1524,-0.14,-0.1354,-0.1255,-0.1326,-0.1224,-0.1259,-0.1291,-0.1247,-0.1355,-0.1216,-0.1218,-0.1219,-0.122,-0.122,0,-0.1467,-0.1466,-0.1466,-0.1464,-0.1436,-0.1489,-0.1494,-0.1446,-0.1396,-0.1406,-0.1372,-0.1299,-0.1192,-0.1166,-0.1077,-0.1017,-0.1014,-0.1005,-0.1033,-0.1023,-0.1126,-0.111,-0.0906,-0.0906,-0.0906,-0.0906,-0.0906,-0.0906,-0.1404,-0.1362,-0.137,-0.1294,-0.1288,-0.1211,-0.1188,-0.114,-0.1126,-0.1034,-0.0997,-0.1003,-0.1004,-0.1042,-0.0958,-0.0909,-0.0907,-0.0863,-0.0909,-0.0998,-0.1022,-0.1046,-0.1034,-0.0818,-0.0818,-0.0758,-0.0757,-0.0757]},{"header":{"parameterUnit":"m.s-1","parameterCategory":2,"la1":30.2991,"la2":30.254,"lo1":-89.0895,"lo2":-89.0444,"dy":0.0017,"dx":0.0017,"nx":28,"ny":28,"refTime":"2023-09-22T09:00:00:Z","depth":"0","parameterNumber":3,"parameterNumberName":"V-component_of_CURRENTS"},"data":[0,0,0,0,0,0,0,0,0,0,0,0,0,0,0,0,0,0,0,0,0,0,0,0,0,0,0,0,0,0,0,0,0,0,0,0,0,0,0,0,0,0,0,0,0,0,0,0,0,0,0,0,0,0,0,0,0,0,-0.0355,-0.0354,0,-0.0283,-0.0282,-0.0282,-0.0237,-0.0237,-0.0237,-0.0237,-0.0147,-0.0145,-0.0142,0,0,0,0,0,0,0,0,0,0,0,0,0,-0.0415,-0.0415,-0.0355,-0.0354,-0.0353,-0.0283,-0.0282,-0.0281,-0.0237,-0.0237,-0.0237,-0.0236,-0.0147,-0.0145,-0.0142,0,0,0,0,0,0,0,0,0,0,0,0,0,-0.0371,-0.0415,-0.0355,-0.0323,-0.0319,-0.0284,-0.0282,-0.0281,-0.0237,-0.0237,-0.0237,-0.0236,-0.0148,-0.0145,-0.0142,-0.0129,0,0,-0.0132,-0.0131,0,0,0,0,0,0,0,0,-0.0374,-0.0369,-0.0328,-0.0325,-0.0321,-0.0269,-0.0271,-0.0229,-0.0237,-0.0268,-0.0237,-0.0236,-0.0186,-0.018,-0.0167,-0.0125,-0.0121,-0.0132,-0.013,-0.0128,-0.0127,0,0,0,0,0,0,0,-0.0377,-0.0372,-0.0326,-0.0327,-0.0323,-0.0299,-0.0292,-0.0263,-0.023,-0.0266,-0.0262,-0.0254,-0.0184,-0.0171,-0.0165,-0.0119,-0.0132,-0.0129,-0.0127,-0.0126,-0.0054,-0.0054,0,0,0,0,0,0,-0.0388,-0.0375,-0.0329,-0.0324,-0.0347,-0.0298,-0.0291,-0.0286,-0.023,-0.0222,-0.0255,-0.0253,-0.0176,-0.0169,-0.0161,-0.0149,-0.0128,-0.0125,-0.0123,-0.0054,-0.0054,-0.0054,0,0,0,0,0,0,-0.039,-0.0385,-0.0332,-0.0348,-0.0339,-0.0298,-0.0292,-0.0285,-0.0271,-0.0222,-0.0213,-0.0249,-0.0176,-0.0166,-0.0136,-0.0145,-0.0124,-0.0121,-0.0054,-0.0054,-0.0054,-0.0121,0,0,0,0,0,0,-0.0392,-0.0386,-0.0389,-0.0349,-0.0339,-0.0316,-0.0292,-0.0283,-0.0267,-0.0263,-0.0214,-0.0206,-0.0175,-0.0141,-0.0133,-0.014,-0.0118,-0.0054,-0.0054,-0.0054,-0.0118,-0.0123,-0.0127,0,0,0,0,0,-0.0394,-0.0399,-0.0389,-0.0384,-0.0343,-0.0317,-0.0309,-0.0278,-0.0267,-0.0265,-0.023,-0.0207,-0.0136,-0.0139,-0.0129,-0.0136,-0.0054,-0.0054,-0.0054,-0.0117,-0.0122,-0.0127,0,0,0,0,0,0,-0.0426,-0.0394,-0.0382,-0.0377,-0.0352,-0.0309,-0.0304,-0.0283,-0.0254,-0.0252,-0.0206,-0.0195,-0.0173,-0.0143,-0.0147,-0.0114,-0.0092,-0.009,-0.0142,-0.0147,-0.0152,-0.0163,-0.0116,0,0,0,0,0,-0.0435,-0.0432,-0.0396,-0.0393,-0.0383,-0.0345,-0.0332,-0.0311,-0.0279,-0.0266,-0.0231,-0.0195,-0.0166,-0.0149,-0.0117,-0.0099,-0.0064,-0.0096,-0.01,-0.0104,-0.0106,-0.0065,-0.0067,-0.0055,-0.0055,-0.0055,0,0,-0.0447,-0.043,-0.0427,-0.04,-0.0379,-0.0371,-0.0336,-0.032,-0.0315,-0.0261,-0.0244,-0.0208,-0.0164,-0.0144,-0.0131,-0.012,-0.0088,-0.0104,-0.0108,-0.0108,-0.0066,-0.0067,-0.0068,-0.0055,-0.0055,-0.0055,0,0,-0.0472,-0.0454,-0.0461,-0.0444,-0.0417,-0.0393,-0.0392,-0.0352,-0.0335,-0.0313,-0.0275,-0.0246,-0.0199,-0.0171,-0.0151,-0.0159,-0.0113,-0.0148,-0.0179,-0.014,-0.0141,-0.0141,-0.0097,-0.0093,-0.015,-0.015,-0.015,0,-0.0489,-0.0492,-0.0459,-0.0461,-0.0454,-0.0408,-0.0415,-0.039,-0.0346,-0.0334,-0.0316,-0.0247,-0.0214,-0.0187,-0.0191,-0.017,-0.0136,-0.0166,-0.0147,-0.0146,-0.0145,-0.01,-0.0094,-0.0153,-0.0153,-0.0153,-0.0152,0,-0.0518,-0.0522,-0.0524,-0.0514,-0.0501,-0.0499,-0.0462,-0.0446,-0.0419,-0.0389,-0.0354,-0.0303,-0.0263,-0.0248,-0.0223,-0.0202,-0.0175,-0.0159,-0.0138,-0.0151,-0.0102,-0.0095,-0.0158,-0.0157,-0.0156,-0.0155,0,0,-0.055,-0.0547,-0.0548,-0.0558,-0.0531,-0.0523,-0.0514,-0.0489,-0.0478,-0.0434,-0.0415,-0.0368,-0.0334,-0.0309,-0.0268,-0.0234,-0.0202,-0.0199,-0.0196,-0.0164,-0.0108,-0.0077,-0.0066,-0.0182,-0.0181,-0.018,-0.0076,0,-0.0585,-0.0612,-0.0594,-0.0616,-0.0628,-0.0588,-0.0582,-0.0552,-0.0513,-0.0481,-0.0425,-0.0389,-0.0358,-0.0337,-0.0301,-0.022,-0.0187,-0.0231,-0.0093,-0.0089,-0.0066,-0.0058,-0.0035,0.0061,-0.0069,-0.0068,-0.0067,0,-0.0618,-0.0633,-0.0667,-0.0672,-0.0672,-0.0673,-0.065,-0.0638,-0.0579,-0.0547,-0.0501,-0.0447,-0.039,-0.0362,-0.0243,-0.027,-0.0202,-0.014,-0.0134,-0.0077,-0.0045,0.0055,0.0079,0.017,-0.0056,-0.0057,-0.0058,0,-0.0663,-0.0682,-0.0714,-0.0717,-0.0712,-0.0716,-0.0706,-0.066,-0.0644,-0.0586,-0.0559,-0.0482,-0.043,-0.0343,-0.022,-0.0229,-0.0078,-0.0073,0.002,0.0024,0.0085,0.0092,0.0208,0.0002,0.0002,0.0002,0.0001,0,-0.0708,-0.0731,-0.0739,-0.0757,-0.0786,-0.0763,-0.077,-0.0743,-0.0696,-0.0668,-0.0599,-0.0548,-0.0422,-0.0319,-0.0223,-0.0072,-0.008,0.002,0.0053,0.0063,0.0067,0.0183,0.0216,0.0006,0.0005,0.0004,0.0003,0,-0.075,-0.0758,-0.0797,-0.0808,-0.0811,-0.0831,-0.0818,-0.0813,-0.0763,-0.0722,-0.0704,-0.0585,-0.0443,-0.0311,-0.0143,-0.0065,0.0132,0.0117,0.0123,0.0154,0.0311,0.0338,0.0485,0.0548,0.0234,0.0235,0.0237,0,-0.0775,-0.0802,-0.0837,-0.086,-0.0868,-0.0887,-0.0891,-0.0854,-0.0835,-0.0734,-0.071,-0.0568,-0.0449,-0.0196,-0.0026,0.0154,0.0213,0.0267,0.0246,0.033,0.0386,0.0394,0.0437,0.0308,0.031,0.0311,0.0312,0,-0.0822,-0.0833,-0.0863,-0.091,-0.0933,-0.0956,-0.0951,-0.094,-0.0875,-0.0817,-0.0695,-0.0591,-0.034,-0.0106,0.0117,0.0215,0.0337,0.03,0.0392,0.0458,0.0472,0.0544,0.023,0.0324,0.0323,0.0322,0.0322,0.0321,-0.0846,-0.0879,-0.0912,-0.0954,-0.0985,-0.0999,-0.0992,-0.0956,-0.0905,-0.0772,-0.0683,-0.0475,-0.0172,0.0158,0.027,0.0499,0.0461,0.0551,0.0582,0.0585,0.0635,0.0346,0.0468,0.0468,0.0467,0.0467,0.0467,0,-0.0867,-0.09,-0.0948,-0.0992,-0.102,-0.1025,-0.1008,-0.096,-0.0871,-0.0728,-0.0585,-0.0202,0.0091,0.0357,0.0667,0.0776,0.0793,0.0818,0.084,0.0873,0.0631,0.0623,0.0779,0.0779,0.0779,0.0779,0.0779,0.0778,-0.0879,-0.0924,-0.0949,-0.1,-0.1025,-0.1019,-0.0996,-0.0903,-0.0781,-0.0512,-0.0269,-0.0086,0.028,0.0743,0.1014,0.1027,0.1125,0.1099,0.1161,0.0991,0.0968,0.0946,0.0948,0.1169,0.1169,0.1393,0.1395,0.1397]}],[{"header":{"parameterUnit":"m.s-1","parameterCategory":2,"la1":30.2991,"la2":30.254,"lo1":-89.0895,"lo2":-89.0444,"dy":0.0017,"dx":0.0017,"nx":28,"ny":28,"refTime":"2023-09-22T09:00:00:Z","depth":"2","parameterNumber":2,"parameterNumberName":"U-component_of_CURRENTS"},"data":[0,0,0,0,0,0,0,0,0,0,0,0,0,0,0,0,0,0,0,0,0,0,0,0,0,0,0,0,0,0,0,0,0,0,0,0,0,0,0,0,0,0,0,0,0,0,0,0,0,0,0,0,0,0,0,0,0,0,-0.1783,-0.1783,0,-0.179,-0.1789,-0.1789,-0.1756,-0.1755,-0.1754,-0.1753,-0.1729,-0.1729,-0.1729,0,0,0,0,0,0,0,0,0,0,0,0,0,-0.1736,-0.1737,-0.1783,-0.1783,-0.1784,-0.179,-0.1789,-0.1789,-0.1756,-0.1755,-0.1754,-0.1753,-0.1729,-0.1729,-0.1729,0,0,0,0,0,0,0,0,0,0,0,0,0,-0.1749,-0.1737,-0.1783,-0.1769,-0.1768,-0.179,-0.1789,-0.1789,-0.1756,-0.1755,-0.1754,-0.1752,-0.1729,-0.1729,-0.1729,-0.1754,0,0,-0.1729,-0.1729,0,0,0,0,0,0,0,0,-0.1748,-0.1751,-0.1771,-0.177,-0.1769,-0.1772,-0.1764,-0.1777,-0.1756,-0.1759,-0.1753,-0.1752,-0.1742,-0.1741,-0.1743,-0.1753,-0.1751,-0.1729,-0.1729,-0.1729,-0.1729,0,0,0,0,0,0,0,-0.1748,-0.175,-0.1784,-0.1771,-0.177,-0.176,-0.1761,-0.1766,-0.1755,-0.1758,-0.1756,-0.176,-0.1741,-0.1743,-0.1742,-0.1751,-0.1729,-0.1729,-0.1729,-0.1729,-0.1759,-0.1759,0,0,0,0,0,0,-0.1752,-0.175,-0.1784,-0.1784,-0.1758,-0.1762,-0.1763,-0.1771,-0.1756,-0.1753,-0.1761,-0.1759,-0.1743,-0.1742,-0.1741,-0.1756,-0.1729,-0.1729,-0.173,-0.1758,-0.1759,-0.1759,0,0,0,0,0,0,-0.1751,-0.1756,-0.1783,-0.1768,-0.1771,-0.1765,-0.1774,-0.1772,-0.1771,-0.1759,-0.1755,-0.1762,-0.1742,-0.1741,-0.1745,-0.1755,-0.173,-0.173,-0.1757,-0.1758,-0.1759,-0.1795,0,0,0,0,0,0,-0.175,-0.1755,-0.1761,-0.1769,-0.1772,-0.1796,-0.1775,-0.1773,-0.1776,-0.1773,-0.1759,-0.1755,-0.1741,-0.1745,-0.1745,-0.1755,-0.173,-0.1756,-0.1758,-0.1759,-0.1793,-0.1797,-0.1801,0,0,0,0,0,-0.1749,-0.1761,-0.1762,-0.1766,-0.1782,-0.1796,-0.1797,-0.1787,-0.1777,-0.1781,-0.1771,-0.1755,-0.1753,-0.1746,-0.1746,-0.1756,-0.1756,-0.1757,-0.1759,-0.1791,-0.1796,-0.18,0,0,0,0,0,0,-0.1744,-0.176,-0.176,-0.1777,-0.1787,-0.1791,-0.1794,-0.1793,-0.1789,-0.1783,-0.1768,-0.1765,-0.177,-0.1763,-0.1755,-0.1768,-0.1751,-0.1752,-0.1775,-0.178,-0.1784,-0.1783,-0.173,0,0,0,0,0,-0.1749,-0.1758,-0.1774,-0.1786,-0.1793,-0.1796,-0.18,-0.1798,-0.1798,-0.1795,-0.1787,-0.178,-0.178,-0.1778,-0.1775,-0.1788,-0.1769,-0.1794,-0.1798,-0.1801,-0.1801,-0.1791,-0.1794,-0.1765,-0.1765,-0.1765,0,0,-0.175,-0.1759,-0.1764,-0.1785,-0.179,-0.1803,-0.1795,-0.1805,-0.1813,-0.1794,-0.1799,-0.1794,-0.1786,-0.1795,-0.1797,-0.1788,-0.1798,-0.1803,-0.1806,-0.1804,-0.1793,-0.1796,-0.1798,-0.1766,-0.1765,-0.1765,0,0,-0.1753,-0.1767,-0.1774,-0.1787,-0.1801,-0.1809,-0.1814,-0.1825,-0.1824,-0.1837,-0.1823,-0.1826,-0.1827,-0.1823,-0.1821,-0.1848,-0.1819,-0.1847,-0.1867,-0.1858,-0.186,-0.1862,-0.1832,-0.1831,-0.1849,-0.1849,-0.1849,0,-0.1752,-0.1765,-0.1778,-0.1791,-0.1802,-0.1813,-0.1825,-0.1836,-0.1844,-0.1849,-0.184,-0.1845,-0.184,-0.185,-0.1858,-0.1857,-0.1839,-0.185,-0.1862,-0.1864,-0.1865,-0.1834,-0.1833,-0.1851,-0.1851,-0.1851,-0.1851,0,-0.1758,-0.1773,-0.1781,-0.18,-0.1816,-0.1829,-0.185,-0.1863,-0.1868,-0.1874,-0.1885,-0.1881,-0.1881,-0.1885,-0.188,-0.1891,-0.187,-0.1868,-0.1849,-0.187,-0.1836,-0.1834,-0.1854,-0.1853,-0.1853,-0.1852,0,0,-0.1737,-0.1777,-0.1777,-0.1789,-0.1822,-0.1833,-0.186,-0.1883,-0.1894,-0.1905,-0.1913,-0.1925,-0.192,-0.1919,-0.1915,-0.1913,-0.1906,-0.1897,-0.1896,-0.1865,-0.1869,-0.1799,-0.1789,-0.1906,-0.1906,-0.1906,-0.1839,0,-0.1733,-0.1757,-0.1781,-0.1804,-0.1818,-0.1848,-0.1871,-0.1894,-0.1909,-0.1921,-0.1928,-0.1932,-0.1934,-0.1932,-0.1934,-0.1914,-0.1903,-0.1923,-0.1856,-0.1853,-0.1786,-0.1785,-0.166,-0.1585,-0.1836,-0.1836,-0.1835,0,-0.172,-0.1741,-0.1763,-0.1806,-0.1815,-0.1832,-0.1867,-0.189,-0.1919,-0.193,-0.1943,-0.1944,-0.1951,-0.1944,-0.1922,-0.1934,-0.1904,-0.1886,-0.1883,-0.1803,-0.1778,-0.1607,-0.1571,-0.1831,-0.1831,-0.1832,-0.1832,0,-0.1682,-0.1725,-0.1741,-0.1755,-0.1807,-0.1821,-0.1847,-0.1884,-0.1902,-0.193,-0.1937,-0.1948,-0.1942,-0.1925,-0.1895,-0.1907,-0.1854,-0.1861,-0.1767,-0.176,-0.1632,-0.1615,-0.1835,-0.1835,-0.1835,-0.1835,-0.1835,0,-0.1661,-0.167,-0.1723,-0.173,-0.175,-0.1796,-0.1816,-0.1848,-0.1884,-0.1887,-0.1931,-0.1922,-0.1938,-0.1913,-0.1888,-0.1811,-0.1844,-0.1761,-0.1739,-0.164,-0.1625,-0.1826,-0.1826,-0.1833,-0.1833,-0.1834,-0.1834,0,-0.1606,-0.1643,-0.1662,-0.1715,-0.173,-0.174,-0.1793,-0.1799,-0.1852,-0.1856,-0.1863,-0.1897,-0.1859,-0.1857,-0.1816,-0.1784,-0.1728,-0.169,-0.1564,-0.1528,-0.1641,-0.1644,-0.1577,-0.1574,-0.1571,-0.1569,-0.1567,0,-0.1578,-0.1583,-0.1634,-0.1636,-0.1655,-0.1683,-0.1693,-0.1764,-0.1773,-0.1819,-0.1805,-0.18,-0.1756,-0.1684,-0.1627,-0.1556,-0.1634,-0.1411,-0.1415,-0.163,-0.1615,-0.1622,-0.1628,-0.1255,-0.125,-0.1247,-0.1244,0,-0.1516,-0.1534,-0.1546,-0.1557,-0.1566,-0.1588,-0.1613,-0.1621,-0.1685,-0.1692,-0.1676,-0.1648,-0.1586,-0.1454,-0.1387,-0.1337,-0.1419,-0.1338,-0.1584,-0.1346,-0.1322,-0.131,-0.1327,-0.1213,-0.1216,-0.1219,-0.122,-0.1222,-0.1452,-0.1444,-0.1455,-0.1457,-0.1472,-0.147,-0.1444,-0.1474,-0.1472,-0.1445,-0.1495,-0.1404,-0.1392,-0.1205,-0.1133,-0.1088,-0.1191,-0.1152,-0.1164,-0.1179,-0.1161,-0.1135,-0.0986,-0.0987,-0.0989,-0.099,-0.0991,0,-0.1357,-0.1353,-0.135,-0.1343,-0.1315,-0.1364,-0.1363,-0.1311,-0.1256,-0.1253,-0.1214,-0.1068,-0.097,-0.0965,-0.0835,-0.0813,-0.0824,-0.0791,-0.0808,-0.0839,-0.0866,-0.0833,-0.057,-0.0569,-0.0567,-0.0566,0,0,-0.13,-0.1258,-0.1261,-0.1184,-0.1175,-0.1098,-0.1072,-0.1017,-0.0992,-0.0901,-0.0849,-0.0896,-0.0921,-0.0741,-0.0705,-0.0612,-0.0721,-0.0581,-0.0917,-0.0967,-0.0993,-0.1069,-0.1052,0,0,0,0,0]},{"header":{"parameterUnit":"m.s-1","parameterCategory":2,"la1":30.2991,"la2":30.254,"lo1":-89.0895,"lo2":-89.0444,"dy":0.0017,"dx":0.0017,"nx":28,"ny":28,"refTime":"2023-09-22T09:00:00:Z","depth":"2","parameterNumber":3,"parameterNumberName":"V-component_of_CURRENTS"},"data":[0,0,0,0,0,0,0,0,0,0,0,0,0,0,0,0,0,0,0,0,0,0,0,0,0,0,0,0,0,0,0,0,0,0,0,0,0,0,0,0,0,0,0,0,0,0,0,0,0,0,0,0,0,0,0,0,0,0,-0.0225,-0.0225,0,-0.0161,-0.016,-0.016,-0.012,-0.012,-0.012,-0.012,-0.0039,-0.0037,-0.0035,0,0,0,0,0,0,0,0,0,0,0,0,0,-0.0276,-0.0276,-0.0226,-0.0225,-0.0224,-0.0161,-0.016,-0.0159,-0.012,-0.012,-0.012,-0.012,-0.004,-0.0038,-0.0035,0,0,0,0,0,0,0,0,0,0,0,0,0,-0.0237,-0.0275,-0.0226,-0.0197,-0.0194,-0.0161,-0.016,-0.0159,-0.012,-0.012,-0.012,-0.0119,-0.0041,-0.0038,-0.0035,-0.0023,0,0,-0.0026,-0.0025,0,0,0,0,0,0,0,0,-0.024,-0.0236,-0.0202,-0.0199,-0.0195,-0.0148,-0.0149,-0.0113,-0.012,-0.0148,-0.012,-0.0119,-0.0075,-0.0069,-0.0058,-0.0019,-0.0016,-0.0026,-0.0024,-0.0023,-0.0022,0,0,0,0,0,0,0,-0.0242,-0.0238,-0.02,-0.0201,-0.0197,-0.0174,-0.0168,-0.0142,-0.0114,-0.0146,-0.0143,-0.0136,-0.0073,-0.0061,-0.0055,-0.0014,-0.0026,-0.0023,-0.0021,-0.002,0.0047,0.0047,0,0,0,0,0,0,-0.0253,-0.0241,-0.0202,-0.0198,-0.0217,-0.0173,-0.0167,-0.0164,-0.0114,-0.0106,-0.0136,-0.0134,-0.0066,-0.0059,-0.0052,-0.0036,-0.0023,-0.002,-0.0018,0.0047,0.0047,0.0047,0,0,0,0,0,0,-0.0254,-0.025,-0.0205,-0.0218,-0.021,-0.0173,-0.0169,-0.0163,-0.0151,-0.0107,-0.0099,-0.0132,-0.0065,-0.0056,-0.0029,-0.0032,-0.0019,-0.0016,0.0047,0.0047,0.0047,-0.0002,0,0,0,0,0,0,-0.0256,-0.0251,-0.0255,-0.0219,-0.021,-0.019,-0.0169,-0.0162,-0.0147,-0.0144,-0.01,-0.0092,-0.0064,-0.0034,-0.0026,-0.0028,-0.0014,0.0047,0.0047,0.0047,-0.0,-0.0004,-0.0006,0,0,0,0,0,-0.0258,-0.0263,-0.0255,-0.025,-0.0215,-0.019,-0.0184,-0.0156,-0.0147,-0.0145,-0.0114,-0.0094,-0.0028,-0.0031,-0.0023,-0.0024,0.0047,0.0047,0.0047,0.0001,-0.0003,-0.0006,0,0,0,0,0,0,-0.0287,-0.0258,-0.0249,-0.0246,-0.0223,-0.0184,-0.0179,-0.0161,-0.0135,-0.0133,-0.0093,-0.0083,-0.006,-0.0035,-0.0039,-0.0003,0.0013,0.0014,-0.0025,-0.0029,-0.0032,-0.0041,-0.0011,0,0,0,0,0,-0.0296,-0.0294,-0.0261,-0.026,-0.025,-0.0217,-0.0205,-0.0187,-0.0157,-0.0146,-0.0114,-0.0081,-0.0053,-0.0036,-0.0008,0.0012,0.0041,0.0018,0.0015,0.0012,0.0011,0.005,0.0051,0.0047,0.0047,0.0047,0,0,-0.0307,-0.0292,-0.0291,-0.0267,-0.0247,-0.0237,-0.0209,-0.0194,-0.0185,-0.0141,-0.0122,-0.0091,-0.005,-0.0028,-0.0016,-0.0007,0.0028,0.0012,0.0009,0.001,0.0051,0.0051,0.0051,0.0047,0.0047,0.0047,0,0,-0.0328,-0.0316,-0.032,-0.0304,-0.0279,-0.0257,-0.0256,-0.0219,-0.0203,-0.0181,-0.0147,-0.0118,-0.0076,-0.0045,-0.0025,-0.0027,0.001,-0.0019,-0.0039,-0.0001,-0.0001,-0.0,0.0035,0.0039,-0.0019,-0.0019,-0.0019,0,-0.0344,-0.0344,-0.0317,-0.0316,-0.0307,-0.0269,-0.0271,-0.0247,-0.0207,-0.0194,-0.0182,-0.0115,-0.0084,-0.005,-0.0052,-0.0034,-0.0007,-0.0031,-0.0006,-0.0004,-0.0003,0.0033,0.0039,-0.0022,-0.0021,-0.0021,-0.0021,0,-0.0364,-0.0365,-0.0366,-0.0354,-0.034,-0.0336,-0.0301,-0.0285,-0.0262,-0.0234,-0.0199,-0.0152,-0.0113,-0.0098,-0.0075,-0.0048,-0.0031,-0.0017,-0.0,-0.0006,0.0033,0.0039,-0.0025,-0.0024,-0.0023,-0.0023,0,0,-0.0395,-0.0384,-0.0385,-0.0389,-0.0361,-0.0353,-0.0339,-0.0312,-0.0302,-0.0259,-0.0239,-0.0189,-0.0162,-0.0137,-0.0101,-0.0066,-0.0033,-0.0042,-0.0039,-0.0013,0.0049,0.0073,0.0082,-0.0016,-0.0015,-0.0014,0.007,0,-0.042,-0.0435,-0.0416,-0.0428,-0.0433,-0.0398,-0.0387,-0.0357,-0.0324,-0.0293,-0.0238,-0.0206,-0.0177,-0.0159,-0.0121,-0.0053,-0.0018,-0.0058,0.0056,0.006,0.0076,0.009,0.0077,0.0152,0.0077,0.0078,0.0079,0,-0.0444,-0.0453,-0.0473,-0.0471,-0.0468,-0.0467,-0.0444,-0.0428,-0.0374,-0.0347,-0.0301,-0.0254,-0.0195,-0.0172,-0.0062,-0.0089,-0.0029,0.0025,0.003,0.0074,0.0095,0.0148,0.0168,0.009,0.0089,0.0089,0.0088,0,-0.0484,-0.0491,-0.0513,-0.0512,-0.05,-0.0501,-0.0491,-0.0448,-0.0434,-0.0379,-0.0359,-0.0282,-0.0237,-0.0155,-0.0047,-0.0054,0.0079,0.0084,0.0164,0.0167,0.019,0.0193,0.0159,0.0159,0.0158,0.0158,0.0158,0,-0.0518,-0.0535,-0.0536,-0.0549,-0.0572,-0.0545,-0.0552,-0.0526,-0.0485,-0.0462,-0.0394,-0.035,-0.023,-0.0138,-0.0051,0.0081,0.0077,0.0167,0.0193,0.0172,0.0173,0.0145,0.0143,0.0161,0.0161,0.016,0.0159,0,-0.0556,-0.0558,-0.0587,-0.0591,-0.0593,-0.0611,-0.06,-0.0598,-0.0554,-0.052,-0.0504,-0.0393,-0.0267,-0.0144,0.0008,0.0082,0.02,0.0246,0.0213,0.0234,0.0262,0.0256,0.0342,0.0344,0.0345,0.0346,0.0347,0,-0.0576,-0.0597,-0.0624,-0.0645,-0.0651,-0.0668,-0.0674,-0.064,-0.0625,-0.0538,-0.0518,-0.0392,-0.0284,-0.0056,0.0097,0.0261,0.0251,0.0333,0.0318,0.0266,0.0283,0.0274,0.0266,0.033,0.0331,0.0332,0.0332,0,-0.0616,-0.0627,-0.065,-0.0694,-0.0717,-0.0737,-0.0736,-0.0729,-0.0672,-0.0622,-0.0515,-0.0421,-0.0199,-0.0001,0.02,0.0285,0.0304,0.0351,0.032,0.0281,0.026,0.0274,0.0266,0.0337,0.0337,0.0336,0.0336,0.0336,-0.0641,-0.067,-0.0699,-0.0738,-0.0769,-0.0784,-0.0781,-0.0749,-0.0706,-0.059,-0.0509,-0.0326,-0.0164,0.0154,0.0274,0.0383,0.038,0.0405,0.0401,0.0397,0.0375,0.0358,0.0449,0.0449,0.0449,0.045,0.045,0,-0.0663,-0.0693,-0.0736,-0.0779,-0.0808,-0.0813,-0.08,-0.0759,-0.0683,-0.0557,-0.0426,-0.0205,0.0005,0.017,0.0359,0.0456,0.0431,0.0458,0.041,0.0404,0.04,0.0376,0.0452,0.0452,0.0452,0.0452,0,0,-0.0677,-0.0718,-0.0739,-0.0793,-0.0818,-0.082,-0.0802,-0.0719,-0.0611,-0.0457,-0.0306,-0.0139,0.0054,0.0188,0.0296,0.0388,0.0364,0.0385,0.0374,0.0298,0.0292,0.0362,0.0319,0,0,0,0,0]}],[{"header":{"parameterUnit":"m.s-1","parameterCategory":2,"la1":30.2991,"la2":30.254,"lo1":-89.0895,"lo2":-89.0444,"dy":0.0017,"dx":0.0017,"nx":28,"ny":28,"refTime":"2023-09-22T09:00:00:Z","depth":"4","parameterNumber":2,"parameterNumberName":"U-component_of_CURRENTS"},"data":[0,0,0,0,0,0,0,0,0,0,0,0,0,0,0,0,0,0,0,0,0,0,0,0,0,0,0,0,0,0,0,0,0,0,0,0,0,0,0,0,0,0,0,0,0,0,0,0,0,0,0,0,0,0,0,0,0,0,-0.1286,-0.1286,0,-0.1325,-0.1325,-0.1325,-0.1343,-0.1343,-0.1343,-0.1343,-0.1381,-0.1382,-0.1383,0,0,0,0,0,0,0,0,0,0,0,0,0,-0.1227,-0.1228,-0.1286,-0.1286,-0.1287,-0.1325,-0.1325,-0.1325,-0.1343,-0.1343,-0.1343,-0.1343,-0.1381,-0.1382,-0.1383,0,0,0,0,0,0,0,0,0,0,0,0,0,-0.1257,-0.1228,-0.1286,-0.1301,-0.1303,-0.1324,-0.1325,-0.1325,-0.1343,-0.1343,-0.1343,-0.1343,-0.138,-0.1382,-0.1383,-0.139,0,0,-0.1387,-0.1388,0,0,0,0,0,0,0,0,-0.1255,-0.1259,-0.1298,-0.13,-0.1302,-0.133,-0.1318,-0.1347,-0.1343,-0.1327,-0.1343,-0.1343,-0.1365,-0.1367,-0.1373,-0.1391,-0.1393,-0.1387,-0.1388,-0.1389,-0.1389,0,0,0,0,0,0,0,-0.1253,-0.1257,-0.13,-0.1299,-0.1301,-0.1306,-0.131,-0.1324,-0.1344,-0.1328,-0.133,-0.1336,-0.1365,-0.1371,-0.1374,-0.1394,-0.1387,-0.1389,-0.139,-0.139,-0.1457,-0.1458,0,0,0,0,0,0,-0.1251,-0.1255,-0.1299,-0.1301,-0.128,-0.1307,-0.1312,-0.132,-0.1344,-0.1348,-0.1336,-0.1336,-0.1369,-0.1372,-0.1375,-0.1423,-0.1389,-0.139,-0.1391,-0.1456,-0.1457,-0.1458,0,0,0,0,0,0,-0.1249,-0.1254,-0.1297,-0.128,-0.1286,-0.1308,-0.1317,-0.1321,-0.1347,-0.135,-0.1353,-0.136,-0.1369,-0.1373,-0.1404,-0.1423,-0.1391,-0.1392,-0.1455,-0.1457,-0.1458,-0.1494,0,0,0,0,0,0,-0.1247,-0.1253,-0.1269,-0.128,-0.1287,-0.1322,-0.1317,-0.1322,-0.1349,-0.1351,-0.1371,-0.1374,-0.1369,-0.1402,-0.1405,-0.1424,-0.1393,-0.1454,-0.1456,-0.1457,-0.1491,-0.1496,-0.15,0,0,0,0,0,-0.1245,-0.1262,-0.127,-0.1276,-0.1304,-0.1323,-0.1327,-0.1342,-0.1351,-0.1365,-0.138,-0.1374,-0.1415,-0.1404,-0.1408,-0.1428,-0.1453,-0.1455,-0.1457,-0.1489,-0.1495,-0.15,0,0,0,0,0,0,-0.1247,-0.1265,-0.1275,-0.1297,-0.1316,-0.1327,-0.1345,-0.1356,-0.138,-0.1388,-0.139,-0.1393,-0.1425,-0.1424,-0.1412,-0.1452,-0.1432,-0.1435,-0.1455,-0.1461,-0.1465,-0.1458,-0.1394,0,0,0,0,0,-0.1254,-0.1271,-0.1289,-0.1309,-0.1321,-0.1339,-0.1353,-0.1364,-0.1381,-0.1393,-0.1408,-0.1422,-0.1434,-0.1447,-0.1456,-0.1483,-0.1465,-0.1497,-0.1502,-0.1506,-0.1502,-0.1495,-0.1498,-0.1465,-0.1465,-0.1465,0,0,-0.1261,-0.1274,-0.1286,-0.1311,-0.1328,-0.1347,-0.1348,-0.1376,-0.1395,-0.1393,-0.1432,-0.1441,-0.1445,-0.1471,-0.1485,-0.1475,-0.1506,-0.1508,-0.1511,-0.1506,-0.1497,-0.15,-0.1503,-0.1467,-0.1466,-0.1466,0,0,-0.1273,-0.1297,-0.1311,-0.1329,-0.1358,-0.1369,-0.1382,-0.1408,-0.1426,-0.146,-0.1461,-0.1482,-0.151,-0.151,-0.1513,-0.155,-0.1529,-0.156,-0.1578,-0.1571,-0.1573,-0.1575,-0.1554,-0.1554,-0.1562,-0.1562,-0.1562,0,-0.1283,-0.1302,-0.132,-0.1338,-0.1356,-0.1381,-0.1401,-0.1422,-0.1457,-0.147,-0.1479,-0.1516,-0.1523,-0.1541,-0.1554,-0.156,-0.1548,-0.1557,-0.1576,-0.1577,-0.1578,-0.1556,-0.1555,-0.1564,-0.1564,-0.1564,-0.1564,0,-0.1294,-0.1322,-0.1334,-0.1363,-0.1386,-0.141,-0.1437,-0.1467,-0.1494,-0.1509,-0.1545,-0.1557,-0.1574,-0.1584,-0.1583,-0.1599,-0.1585,-0.1581,-0.1559,-0.1583,-0.1559,-0.1557,-0.1567,-0.1566,-0.1566,-0.1565,0,0,-0.1281,-0.1333,-0.1339,-0.1358,-0.1403,-0.1418,-0.1459,-0.1491,-0.1513,-0.1552,-0.1573,-0.1603,-0.161,-0.1614,-0.1618,-0.1618,-0.1618,-0.1608,-0.1607,-0.1582,-0.1594,-0.1486,-0.1474,-0.162,-0.162,-0.162,-0.1573,0,-0.1285,-0.1321,-0.1347,-0.1387,-0.1407,-0.1446,-0.1477,-0.1511,-0.1542,-0.1571,-0.159,-0.1613,-0.1621,-0.1633,-0.1636,-0.1624,-0.1616,-0.1631,-0.1579,-0.1577,-0.1474,-0.1469,-0.162,-0.1571,-0.1571,-0.1571,-0.157,0,-0.1278,-0.1305,-0.1344,-0.1396,-0.141,-0.1439,-0.1488,-0.1519,-0.1562,-0.1585,-0.1613,-0.1627,-0.1643,-0.1642,-0.1631,-0.1642,-0.1621,-0.1608,-0.1605,-0.1488,-0.1465,-0.1543,-0.1567,-0.1567,-0.1567,-0.1568,-0.1568,0,-0.124,-0.1299,-0.1331,-0.135,-0.1413,-0.1441,-0.1476,-0.1524,-0.1548,-0.1593,-0.1611,-0.1633,-0.1643,-0.1632,-0.1614,-0.1625,-0.1584,-0.1592,-0.1471,-0.1463,-0.1561,-0.1559,-0.1571,-0.1571,-0.1571,-0.1571,-0.1571,0,-0.1217,-0.1245,-0.1321,-0.1337,-0.1375,-0.1426,-0.1465,-0.1503,-0.1549,-0.1558,-0.1614,-0.1609,-0.1643,-0.1627,-0.1608,-0.1523,-0.1577,-0.1461,-0.1439,-0.1577,-0.1578,-0.1559,-0.1558,-0.1569,-0.157,-0.157,-0.157,0,-0.1163,-0.1217,-0.1256,-0.1332,-0.1358,-0.1383,-0.1455,-0.1467,-0.1531,-0.1542,-0.1556,-0.1594,-0.1562,-0.1573,-0.1542,-0.1496,-0.1439,-0.1396,-0.153,-0.1519,-0.1325,-0.1327,-0.1251,-0.1246,-0.1243,-0.124,-0.1237,0,-0.1135,-0.1154,-0.1241,-0.1259,-0.1296,-0.1347,-0.1367,-0.1445,-0.1453,-0.1504,-0.1487,-0.1494,-0.15,-0.1369,-0.1396,-0.1339,-0.1328,-0.1297,-0.132,-0.1303,-0.1291,-0.1299,-0.1305,-0.1231,-0.123,-0.1229,-0.1228,0,-0.1076,-0.112,-0.1148,-0.1191,-0.1222,-0.1255,-0.1295,-0.1294,-0.1357,-0.143,-0.1374,-0.1346,-0.1304,-0.1277,-0.1244,-0.1207,-0.1318,-0.1259,-0.1267,-0.1289,-0.1279,-0.1272,-0.1283,-0.1216,-0.1217,-0.1219,-0.1219,0,-0.1027,-0.1032,-0.1074,-0.1098,-0.1138,-0.1137,-0.1178,-0.1174,-0.1198,-0.1262,-0.1228,-0.1234,-0.1274,-0.1204,-0.1167,-0.1128,-0.1115,-0.1089,-0.1106,-0.112,-0.11,-0.107,-0.0909,0,0,0,0,0,-0.0969,-0.0957,-0.0974,-0.0989,-0.1025,-0.1048,-0.1109,-0.1149,-0.1213,-0.1136,-0.1183,-0.1133,-0.1075,-0.1083,-0.1013,-0.1108,-0.1124,-0.1023,-0.1106,-0.1145,-0.116,-0.1149,0,0,0,0,0,0,-0.0922,-0.0934,-0.0936,-0.0891,-0.088,-0.0904,-0.0938,-0.0986,-0.096,-0.103,-0.1003,-0.1058,-0.102,-0.1086,-0.0983,-0.0986,-0.1014,-0.1039,-0.1036,-0.1137,-0.115,-0.1162,-0.1156,0,0,0,0,0]},{"header":{"parameterUnit":"m.s-1","parameterCategory":2,"la1":30.2991,"la2":30.254,"lo1":-89.0895,"lo2":-89.0444,"dy":0.0017,"dx":0.0017,"nx":28,"ny":28,"refTime":"2023-09-22T09:00:00:Z","depth":"4","parameterNumber":3,"parameterNumberName":"V-component_of_CURRENTS"},"data":[0,0,0,0,0,0,0,0,0,0,0,0,0,0,0,0,0,0,0,0,0,0,0,0,0,0,0,0,0,0,0,0,0,0,0,0,0,0,0,0,0,0,0,0,0,0,0,0,0,0,0,0,0,0,0,0,0,0,-0.0143,-0.0143,0,-0.0101,-0.01,-0.01,-0.0073,-0.0073,-0.0073,-0.0073,-0.0013,-0.0012,-0.001,0,0,0,0,0,0,0,0,0,0,0,0,0,-0.0169,-0.0169,-0.0143,-0.0143,-0.0142,-0.0101,-0.01,-0.0099,-0.0073,-0.0073,-0.0073,-0.0073,-0.0013,-0.0012,-0.001,0,0,0,0,0,0,0,0,0,0,0,0,0,-0.0145,-0.0169,-0.0143,-0.0124,-0.0122,-0.0101,-0.01,-0.0099,-0.0073,-0.0073,-0.0073,-0.0073,-0.0014,-0.0012,-0.001,0.0,0,0,-0.0003,-0.0002,0,0,0,0,0,0,0,0,-0.0147,-0.0145,-0.0127,-0.0125,-0.0123,-0.0092,-0.0087,-0.0065,-0.0073,-0.0092,-0.0073,-0.0073,-0.0038,-0.0034,-0.0026,0.0003,0.0005,-0.0003,-0.0001,-0.0,0.0,0,0,0,0,0,0,0,-0.0149,-0.0146,-0.0126,-0.0127,-0.0124,-0.0106,-0.0103,-0.0083,-0.0066,-0.009,-0.0088,-0.0084,-0.0037,-0.0029,-0.0025,0.0006,-0.0003,-0.0001,0.0001,0.0001,0.0056,0.0056,0,0,0,0,0,0,-0.0156,-0.0148,-0.0127,-0.0125,-0.0135,-0.0106,-0.0103,-0.0102,-0.0067,-0.0061,-0.0084,-0.0082,-0.0032,-0.0027,-0.0022,-0.0005,-0.0,0.0002,0.0003,0.0056,0.0056,0.0056,0,0,0,0,0,0,-0.0157,-0.0155,-0.0129,-0.0135,-0.0131,-0.0106,-0.0106,-0.0101,-0.0095,-0.0062,-0.0056,-0.0082,-0.0032,-0.0026,-0.0005,-0.0002,0.0003,0.0005,0.0055,0.0056,0.0056,0.0029,0,0,0,0,0,0,-0.0158,-0.0155,-0.0161,-0.0136,-0.0131,-0.012,-0.0106,-0.0101,-0.0092,-0.009,-0.0059,-0.0053,-0.0031,-0.0008,-0.0003,0.0001,0.0006,0.0055,0.0055,0.0056,0.0029,0.0028,0.0027,0,0,0,0,0,-0.0159,-0.0165,-0.0161,-0.0159,-0.0138,-0.012,-0.0116,-0.0098,-0.0093,-0.0091,-0.0069,-0.0054,-0.0003,-0.0007,-0.0,0.0004,0.0055,0.0055,0.0056,0.003,0.0028,0.0027,0,0,0,0,0,0,-0.0179,-0.0162,-0.0158,-0.0159,-0.0143,-0.0116,-0.0114,-0.0102,-0.0084,-0.0083,-0.0053,-0.0045,-0.0027,-0.0008,-0.0013,0.0021,0.0029,0.003,0.0007,0.0006,0.0004,-0.0004,0.0008,0,0,0,0,0,-0.0187,-0.0189,-0.0167,-0.017,-0.0164,-0.0141,-0.0133,-0.0121,-0.01,-0.0092,-0.0068,-0.0043,-0.002,-0.0006,0.0015,0.0034,0.0054,0.0041,0.004,0.0039,0.0037,0.0072,0.0074,0.0057,0.0057,0.0057,0,0,-0.0197,-0.0188,-0.0189,-0.0175,-0.0163,-0.0154,-0.0136,-0.0127,-0.0118,-0.0088,-0.0072,-0.005,-0.0017,0.0003,0.0014,0.002,0.0053,0.0039,0.0037,0.0037,0.0073,0.0074,0.0076,0.0057,0.0057,0.0057,0,0,-0.0212,-0.0209,-0.0212,-0.0201,-0.0185,-0.0169,-0.0169,-0.0144,-0.0131,-0.0114,-0.0089,-0.0064,-0.0033,-0.0004,0.0014,0.0018,0.0042,0.0022,0.0013,0.0047,0.0049,0.005,0.0074,0.0078,0.0025,0.0025,0.0025,0,-0.0224,-0.0225,-0.021,-0.0208,-0.0202,-0.0178,-0.0177,-0.0159,-0.013,-0.0119,-0.0114,-0.006,-0.0034,0.0001,0.0002,0.0015,0.0033,0.0016,0.0045,0.0047,0.0049,0.0073,0.0078,0.0024,0.0024,0.0024,0.0024,0,-0.0235,-0.0238,-0.0239,-0.023,-0.022,-0.0217,-0.0191,-0.018,-0.0165,-0.0144,-0.0114,-0.0076,-0.0044,-0.003,-0.0012,0.0018,0.0024,0.0036,0.0048,0.0049,0.0074,0.008,0.0022,0.0022,0.0023,0.0023,0,0,-0.0258,-0.025,-0.0251,-0.0254,-0.0233,-0.0228,-0.0214,-0.0191,-0.0184,-0.0151,-0.0134,-0.0088,-0.007,-0.0049,-0.0019,0.0013,0.0043,0.0027,0.0029,0.0046,0.0109,0.0104,0.0109,0.0059,0.006,0.006,0.0118,0,-0.0272,-0.028,-0.0267,-0.0274,-0.0275,-0.0251,-0.0241,-0.0219,-0.0196,-0.0173,-0.0126,-0.0101,-0.0075,-0.0063,-0.0026,0.0024,0.0057,0.0026,0.0108,0.011,0.0103,0.0115,0.0063,0.0123,0.0124,0.0125,0.0125,0,-0.0284,-0.029,-0.0302,-0.0301,-0.0299,-0.0299,-0.0284,-0.0271,-0.023,-0.0211,-0.0173,-0.0138,-0.0085,-0.0067,0.0024,0.0001,0.005,0.0092,0.0095,0.0103,0.0115,0.0123,0.0136,0.0135,0.0134,0.0134,0.0133,0,-0.031,-0.0314,-0.0329,-0.0328,-0.0319,-0.0323,-0.0318,-0.0288,-0.0279,-0.0237,-0.0226,-0.0158,-0.0126,-0.0054,0.003,0.0026,0.013,0.0138,0.0182,0.0182,0.0181,0.0179,0.0204,0.0204,0.0204,0.0204,0.0204,0,-0.0325,-0.034,-0.0348,-0.0357,-0.0378,-0.0359,-0.037,-0.0352,-0.0325,-0.031,-0.0253,-0.0221,-0.0122,-0.0049,0.0025,0.0119,0.0129,0.0182,0.02,0.0167,0.0163,0.0185,0.0182,0.0206,0.0206,0.0205,0.0205,0,-0.0347,-0.0352,-0.0376,-0.0385,-0.0392,-0.0411,-0.0415,-0.0416,-0.0387,-0.0366,-0.0355,-0.0267,-0.017,-0.0069,0.0055,0.0108,0.02,0.0233,0.0185,0.0198,0.0229,0.0224,0.0283,0.0283,0.0283,0.0284,0.0284,0,-0.0355,-0.0371,-0.0406,-0.0429,-0.0438,-0.0461,-0.0473,-0.0454,-0.0445,-0.0387,-0.0371,-0.0279,-0.0211,-0.0036,0.0063,0.0202,0.0223,0.026,0.025,0.0228,0.0239,0.0233,0.0228,0.0284,0.0284,0.0285,0.0285,0,-0.0374,-0.0394,-0.0415,-0.0462,-0.0492,-0.0515,-0.0524,-0.052,-0.0482,-0.0463,-0.0368,-0.0272,-0.016,-0.0028,0.0079,0.0179,0.0228,0.0264,0.0264,0.0255,0.0231,0.024,0.0234,0.0286,0.0285,0.0285,0.0285,0,-0.0391,-0.0416,-0.0449,-0.0488,-0.0529,-0.0546,-0.055,-0.0519,-0.0501,-0.0424,-0.0392,-0.0265,-0.0187,-0.0039,0.0061,0.0155,0.0177,0.0198,0.0202,0.0202,0.0159,0.0115,0.0153,0,0,0,0,0,-0.0401,-0.0428,-0.0467,-0.0509,-0.0549,-0.0564,-0.0569,-0.056,-0.0524,-0.0458,-0.0419,-0.0307,-0.014,-0.0064,0.0031,0.0051,0.0176,0.0162,0.0198,0.0291,0.029,0.0253,0,0,0,0,0,0,-0.0409,-0.0449,-0.0466,-0.0514,-0.0541,-0.0575,-0.0576,-0.0552,-0.05,-0.0451,-0.0355,-0.0298,-0.0133,-0.0194,0.0029,0.0057,0.0089,0.0243,0.0245,0.0292,0.0291,0.029,0.0251,0,0,0,0,0]}]]